Regional Weather Roundup
Issued by NWS

Home | Current Version | Previous Version | Text Only | Print | Product List | Glossary On
Versions: 1 2 3 4 5 6 7 8 9 10 11 12 13 14 15 16 17 18 19 20 21 22 23 24 25 26 27 28 29 30 31 32 33 34 35 36 37 38 39 40 41 42 43 44 45 46 47 48 49 50
000
ASUS43 KLMK 201010
RWRKY
KENTUCKY REGIONAL WEATHER ROUNDUP
NATIONAL WEATHER SERVICE LOUISVILLE KY
600 AM EDT WED AUG 20 2014

NOTE "FAIR" INDICATES FEW OR NO CLOUDS BELOW 12,000 FEET
WITH NO SIGNIFICANT WEATHER AND/OR OBSTRUCTIONS TO VISIBILITY.

KYZ001>023-026-027-061>063-070>075-201100-
WESTERN AND SOUTH CENTRAL KENTUCKY

CITY           SKY/WX    TMP DP  RH WIND       PRES   REMARKS
PADUCAH        CLEAR     78  75  90 SW6       29.86R
HENDERSON      CLEAR     70  66  88 CALM      29.87R
OWENSBORO      CLEAR     71  71 100 CALM      29.89R
HOPKINSVILLE   CLEAR     74  74 100 SW3       29.90R
BOWLING GREEN  CLEAR     75  71  87 SW5       29.91R
GLASGOW        CLEAR     72  72 100 CALM      29.91S FOG
$$

KYZ024-025-028>034-038-045-046-053-201100-
NORTH CENTRAL KENTUCKY

CITY           SKY/WX    TMP DP  RH WIND       PRES   REMARKS
LOUISVILLE/SDF PTCLDY    74  69  85 CALM      29.89R
LOUISVILLE/LOU PTCLDY    73  69  87 SE5       29.90R
FORT KNOX      CLEAR     68  58  71 SW2       29.89R
$$

KYZ035>037-039>044-047>052-055>060-089>105-201100-
NORTHEAST KENTUCKY

CITY           SKY/WX    TMP DP  RH WIND       PRES   REMARKS
LEXINGTON      CLOUDY    72  65  78 E6        29.93R
COVINGTON      PTCLDY    64  62  93 CALM      29.89R FOG
FRANKFORT      MOCLDY    69  65  86 S5        29.90R
$$

KYZ054-064>069-076>088-106>120-201100-
SOUTHEAST KENTUCKY

CITY           SKY/WX    TMP DP  RH WIND       PRES   REMARKS
JACKSON        TSTM      67  65  93 SE6       29.95S FOG
LONDON         PTCLDY    72  68  87 S5        29.94S
SOMERSET       CLEAR     70  70 100 CALM      29.94R FOG
MIDDLESBORO    CLOUDY    67  67 100 CALM      29.97R FOG
MONTICELLO     PTSUNNY   71  70  97 CALM      29.95R FOG
$$



USA.gov is the U.S. government's official web portal to all federal, state and local government web resources and services.